STARLINK-5270 (55299 NORAD) Tracking and Keplerian Element Data

This shows tracking and keplerian element data for the satellite.

Feedback or suggestion? Click here.




ElementValue
Catalog55299
NameSTARLINK-5270
Epoch Orbit1738
Epoch Day127.05022672
Epoch Year2023
RAAN126.626
Inclination69.9992
Eccentricity0.0003566
Argument of Perigee264.4402
Mean Anonmoly95.6387
Mean Motion15.69917664
Decay Rate-1.258E-05
L11 55299U 23010AG 23127.05022672 -.00001258 00000+0 -86975-5 0 9992
L22 55299 69.9992 126.6260 0003566 264.4402 95.6387 15.69917664 17382



Live tracking and technical data element details for STARLINK-5270 (NORAD 55299). STARLINK-5270 can be tracked NOW for your location showing map with azimuth and elevation plus other details from your city location.







IsCatalogInMostPopularTable: catalog: 55299, numindb: 1
Update: records affected: 1



GetName: 55299 STARLINK-5270

Hit Count: updated at: Sun, 28 May 2023 07:44:01 GMT